Location: ?????? ??????
(44.3742°N, 135.2221°E)
Time: 05:11:39
(UTC+00:00)

Cosmos 1867 - Pass Details

Date: 19 May 2025
Orbit: 775 x 798 km, 65.0° (Epoch: 19 June)

Event Time Altitude Azimuth Distance (km) Brightness Sun altitude
Rises 13:09:03 0° 321° (NW) 3,310 8.2 -21.3°
Reaches altitude 10° 13:11:33 10° 316° (NW) 2,375 7.1 -21.5°
Maximum altitude 13:16:48 50° 243° (WSW) 1,001 4.0 -21.9°
Enters shadow 13:18:12 40° 199° (SSW) 1,153 4.0 -22.0°
